Location: Baili�vre
(50.0696°N, 4.2409°E)
Time: 00:01:24
(UTC+00:00)

Cosmos 1666 Rocket - Pass Details

Date: 08 August 2020
Orbit: 605 x 632 km, 82.5° (Epoch: 23 September)

Event Time Altitude Azimuth Distance (km) Brightness Sun altitude
Exits shadow 20:21:25 - 173° (S) 2,374 6.1 -10.0°
Reaches altitude 10° 20:22:28 10° 171° (S) 1,949 5.7 -10.1°
Maximum altitude 20:26:40 53° 95° (E) 753 3.7 -10.6°
Drops below altitude 10° 20:30:54 10° 19° (NNE) 1,971 6.5 -11.1°
Sets 20:33:10 0° 14° (NNE) 2,883 7.4 -11.4°
